When you browse on this site, cookies collect data to enhance your experience and personalize the content and advertising you see.
Visit our Privacy Policy to learn more. By continuing to use the site, you agree to this use of cookies and data.
  • In Sweden
  • List of Countries
  • For 7 days
  • Water Temperature
  • Satellite Maps
  • Weather Map
  • Weather Widgets
  • user-avatar
    Login

    Hourly Weather San Luis

    Today, 21 July, Sunday

    Time Temperature Precipitation Wind Pressure Humidity
    00:00 +14°C° 0 mm 6 mps 686 mmHg 75%
    01:00 +14°C° 0 mm 7 mps 685 mmHg 73%
    02:00 +15°C° 0 mm 8 mps 685 mmHg 72%
    03:00 +15°C° 0 mm 7 mps 685 mmHg 71%
    04:00 +15°C° 0 mm 7 mps 685 mmHg 71%
    05:00 +15°C° 0 mm 6 mps 685 mmHg 70%
    06:00 +14°C° 0 mm 5 mps 685 mmHg 75%
    07:00 +12°C° 0 mm 3 mps 686 mmHg 81%
    08:00 +12°C° 0 mm 2 mps 686 mmHg 86%
    09:00 +12°C° 0 mm 3 mps 688 mmHg 83%
    10:00 +13°C° 0 mm 5 mps 689 mmHg 79%
    11:00 +15°C° 0 mm 6 mps 690 mmHg 76%
    12:00 +14°C° 0 mm 7 mps 690 mmHg 67%
    13:00 +12°C° 0 mm 9 mps 690 mmHg 58%
    14:00 +11°C° 0 mm 11 mps 690 mmHg 50%
    15:00 +9°C° 0 mm 11 mps 691 mmHg 46%
    16:00 +9°C° 0 mm 11 mps 691 mmHg 42%
    17:00 +8°C° 0 mm 11 mps 692 mmHg 38%
    18:00 +8°C° 0 mm 10 mps 693 mmHg 34%
    19:00 +7°C° 0 mm 9 mps 694 mmHg 31%
    20:00 +7°C° 0 mm 9 mps 694 mmHg 27%
    21:00 +7°C° 0 mm 8 mps 695 mmHg 27%
    22:00 +7°C° 0 mm 8 mps 696 mmHg 26%
    23:00 +6°C° 0 mm 8 mps 697 mmHg 26%

    Tomorrow, 22 July, Monday

    Time Temperature Precipitation Wind Pressure Humidity
    00:00 +6°C° 0 mm 8 mps 698 mmHg 28%
    01:00 +5°C° 0 mm 8 mps 698 mmHg 29%
    02:00 +5°C° 0 mm 8 mps 698 mmHg 31%
    03:00 +5°C° 0 mm 7 mps 699 mmHg 31%
    04:00 +4°C° 0 mm 7 mps 699 mmHg 31%
    05:00 +4°C° 0 mm 7 mps 699 mmHg 31%
    06:00 +4°C° 0 mm 6 mps 700 mmHg 32%
    07:00 +4°C° 0 mm 6 mps 700 mmHg 32%
    08:00 +3°C° 0 mm 6 mps 701 mmHg 33%
    09:00 +5°C° 0 mm 6 mps 702 mmHg 30%
    10:00 +8°C° 0 mm 6 mps 702 mmHg 27%
    11:00 +9°C° 0 mm 6 mps 703 mmHg 23%
    12:00 +10°C° 0 mm 6 mps 702 mmHg 22%
    13:00 +12°C° 0 mm 5 mps 702 mmHg 20%
    14:00 +12°C° 0 mm 5 mps 701 mmHg 19%
    15:00 +12°C° 0 mm 5 mps 701 mmHg 20%
    16:00 +10°C° 0 mm 6 mps 701 mmHg 21%
    17:00 +9°C° 0 mm 6 mps 701 mmHg 22%
    18:00 +8°C° 0 mm 6 mps 701 mmHg 25%
    19:00 +7°C° 0 mm 6 mps 701 mmHg 28%
    20:00 +5°C° 0 mm 6 mps 701 mmHg 31%
    21:00 +5°C° 0 mm 6 mps 702 mmHg 33%
    22:00 +4°C° 0 mm 6 mps 702 mmHg 35%
    23:00 +4°C° 0 mm 6 mps 703 mmHg 37%

    Day after tomorrow, 23 July, Tuesday

    Time Temperature Precipitation Wind Pressure Humidity
    00:00 +4°C° 0 mm 6 mps 703 mmHg 39%
    01:00 +4°C° 0 mm 6 mps 703 mmHg 40%
    02:00 +3°C° 0 mm 5 mps 702 mmHg 41%
    03:00 +4°C° 0 mm 4 mps 702 mmHg 42%
    04:00 +3°C° 0 mm 4 mps 703 mmHg 43%
    05:00 +3°C° 0 mm 3 mps 703 mmHg 44%
    06:00 +3°C° 0 mm 3 mps 703 mmHg 45%
    07:00 +3°C° 0 mm 3 mps 703 mmHg 45%
    08:00 +3°C° 0 mm 3 mps 704 mmHg 46%
    09:00 +6°C° 0 mm 2 mps 704 mmHg 39%
    10:00 +8°C° 0 mm 2 mps 705 mmHg 33%
    11:00 +10°C° 0 mm 2 mps 705 mmHg 27%
    12:00 +12°C° 0 mm 2 mps 705 mmHg 26%
    13:00 +13°C° 0 mm 2 mps 704 mmHg 24%
    14:00 +14°C° 0 mm 2 mps 704 mmHg 23%
    15:00 +13°C° 0 mm 2 mps 704 mmHg 23%
    16:00 +13°C° 0 mm 2 mps 704 mmHg 24%
    17:00 +13°C° 0 mm 2 mps 703 mmHg 25%
    18:00 +10°C° 0 mm 2 mps 704 mmHg 28%
    19:00 +9°C° 0 mm 3 mps 704 mmHg 31%
    20:00 +7°C° 0 mm 3 mps 704 mmHg 34%
    21:00 +5°C° 0 mm 3 mps 705 mmHg 36%
    22:00 +6°C° 0 mm 2 mps 705 mmHg 37%
    23:00 +6°C° 0 mm 1 mps 705 mmHg 38%

    24 July, Wednesday

    Time Temperature Precipitation Wind Pressure Humidity
    00:00 +6°C° 0 mm 1 mps 705 mmHg 40%
    01:00 +5°C° 0 mm 1 mps 705 mmHg 42%
    02:00 +3°C° 0 mm 0 mps 705 mmHg 43%
    03:00 +3°C° 0 mm 0 mps 705 mmHg 44%
    04:00 +2°C° 0 mm 0 mps 705 mmHg 45%
    05:00 +2°C° 0 mm 0 mps 705 mmHg 46%
    06:00 +2°C° 0 mm 0 mps 706 mmHg 46%
    07:00 +3°C° 0 mm 0 mps 707 mmHg 46%
    08:00 +3°C° 0 mm 0 mps 707 mmHg 47%
    09:00 +6°C° 0 mm 1 mps 708 mmHg 40%
    10:00 +9°C° 0 mm 1 mps 708 mmHg 33%
    11:00 +11°C° 0 mm 1 mps 709 mmHg 26%
    12:00 +12°C° 0 mm 1 mps 709 mmHg 24%
    13:00 +13°C° 0 mm 2 mps 708 mmHg 23%
    14:00 +14°C° 0 mm 2 mps 708 mmHg 21%
    15:00 +13°C° 0 mm 1 mps 707 mmHg 22%
    16:00 +13°C° 0 mm 1 mps 707 mmHg 24%
    17:00 +13°C° 0 mm 1 mps 707 mmHg 25%
    18:00 +11°C° 0 mm 1 mps 707 mmHg 28%
    19:00 +9°C° 0 mm 1 mps 707 mmHg 30%
    20:00 +7°C° 0 mm 2 mps 707 mmHg 33%
    21:00 +6°C° 0 mm 2 mps 707 mmHg 34%
    22:00 +6°C° 0 mm 2 mps 707 mmHg 36%
    23:00 +6°C° 0 mm 2 mps 707 mmHg 37%

    25 July, Thursday

    Time Temperature Precipitation Wind Pressure Humidity
    00:00 +6°C° 0 mm 2 mps 707 mmHg 38%
    01:00 +5°C° 0 mm 2 mps 707 mmHg 38%
    02:00 +4°C° 0 mm 3 mps 707 mmHg 38%
    03:00 +4°C° 0 mm 3 mps 706 mmHg 39%
    04:00 +4°C° 0 mm 4 mps 706 mmHg 40%
    05:00 +3°C° 0 mm 5 mps 706 mmHg 40%
    06:00 +3°C° 0 mm 5 mps 706 mmHg 41%
    07:00 +4°C° 0 mm 4 mps 706 mmHg 42%
    08:00 +4°C° 0 mm 4 mps 706 mmHg 42%
    09:00 +7°C° 0 mm 4 mps 706 mmHg 37%
    10:00 +9°C° 0 mm 5 mps 707 mmHg 31%
    11:00 +12°C° 0 mm 5 mps 707 mmHg 25%
    12:00 +13°C° 0 mm 5 mps 706 mmHg 24%
    13:00 +14°C° 0 mm 5 mps 705 mmHg 23%
    14:00 +14°C° 0 mm 4 mps 705 mmHg 22%
    15:00 +14°C° 0 mm 4 mps 704 mmHg 23%
    16:00 +13°C° 0 mm 4 mps 704 mmHg 24%
    17:00 +13°C° 0 mm 4 mps 703 mmHg 26%
    18:00 +11°C° 0 mm 4 mps 703 mmHg 29%
    19:00 +8°C° 0 mm 4 mps 703 mmHg 33%
    20:00 +7°C° 0 mm 4 mps 703 mmHg 37%
    21:00 +6°C° 0 mm 4 mps 704 mmHg 37%
    22:00 +6°C° 0 mm 4 mps 704 mmHg 38%
    23:00 +6°C° 0 mm 4 mps 704 mmHg 39%

    26 July, Friday

    Time Temperature Precipitation Wind Pressure Humidity
    00:00 +5°C° 0 mm 4 mps 704 mmHg 40%
    01:00 +5°C° 0 mm 4 mps 704 mmHg 41%
    02:00 +5°C° 0 mm 4 mps 704 mmHg 42%
    03:00 +4°C° 0 mm 4 mps 703 mmHg 44%
    04:00 +4°C° 0 mm 3 mps 703 mmHg 46%
    05:00 +4°C° 0 mm 2 mps 703 mmHg 48%
    06:00 +3°C° 0 mm 3 mps 703 mmHg 48%
    07:00 +3°C° 0 mm 3 mps 703 mmHg 48%
    08:00 +4°C° 0 mm 3 mps 704 mmHg 48%
    09:00 +7°C° 0 mm 3 mps 704 mmHg 42%
    10:00 +9°C° 0 mm 3 mps 704 mmHg 36%
    11:00 +11°C° 0 mm 4 mps 704 mmHg 29%
    12:00 +12°C° 0 mm 4 mps 704 mmHg 27%
    13:00 +13°C° 0 mm 4 mps 703 mmHg 26%
    14:00 +14°C° 0 mm 4 mps 703 mmHg 24%
    15:00 +14°C° 0 mm 4 mps 702 mmHg 25%
    16:00 +13°C° 0 mm 3 mps 702 mmHg 27%
    17:00 +13°C° 0 mm 3 mps 702 mmHg 29%
    18:00 +11°C° 0 mm 3 mps 702 mmHg 33%
    19:00 +9°C° 0 mm 2 mps 702 mmHg 37%
    20:00 +8°C° 0 mm 2 mps 702 mmHg 41%
    21:00 +7°C° 0 mm 2 mps 703 mmHg 42%
    22:00 +7°C° 0 mm 2 mps 703 mmHg 43%
    23:00 +8°C° 0 mm 1 mps 703 mmHg 44%
    Show more